Grand Junction, CO

10:48 PM MST on November 24, 2017 (GMT -0700)
Walker

Weather History for KGJT - March, 2015

Change the Weather History Date:

Friday, March 13, 2015

  Actual Average Record
Temperature  
Mean Temperature 53 °F 43 °F  
Max Temperature 67 °F 56 °F 74 °F (1900)
Min Temperature 39 °F 31 °F 16 °F (1956)
Degree Days  
Heating Degree Days 12 22  
Month to date heating degree days 302 303  
Since 1 July heating degree days 4287 4682  
Cooling Degree Days 0 0  
Month to date cooling degree days 0 0  
Year to date cooling degree days 0 0  
Growing Degree Days 2 (Base 50)    
Moisture  
Dew Point 29 °F    
Average Humidity 47    
Maximum Humidity 70    
Minimum Humidity 24    
Precipitation  
Precipitation 0.00 in 0.03 in 0.31 in (1964)
Month to date precipitation 0.23 0.33  
Year to date precipitation 1.09 1.45  
Snow  
Snow 0.00 in 0.10 in 2.80 in (1964)
Month to date snowfall 1.9 1.1  
Since 1 July snowfall 10.5 16.6  
Snow Depth 0.00 in    
Sea Level Pressure  
Sea Level Pressure 30.22 in    
Wind  
Wind Speed 4 mph (SE)    
Max Wind Speed 17 mph    
Max Gust Speed 19 mph    
Visibility 10 miles    
Events      
T = Trace of Precipitation, MM = Missing Value Source: NWS Daily Summary

Daily Weather History Graph

Daily Weather History Graph

Search for Another Location

Airport or City:

Trip Planner

Search our weather history database for the weather conditions in past years. The results will help you decide how hot, cold, wet, or windy it might be!

Date:

Astronomy

Mar. 13, 2015 Rise Set
Actual Time 7:28 AM MDT 7:18 PM MDT
Civil Twilight 7:02 AM MDT 7:45 PM MDT
Nautical Twilight 6:31 AM MDT 8:16 PM MDT
Astronomical Twilight 5:59 AM MDT 8:47 PM MDT
Moon 2:00 AM MDT (3/13) 12:17 PM MDT (3/13)
Length of Visible Light 12h 43m
Length of Day
11h 50m
Waning Gibbous, 50% of the Moon is Illuminated
Mar 13
Waning Gibbous
Mar 20
New
Mar 27
First Quarter
Apr 4
Full
Apr 11
Last Quarter

Hourly Weather History & Observations

Time (MDT) Temp. Windchill Dew Point Humidity Pressure Visibility Wind Dir Wind Speed Gust Speed Precip Events Conditions
12:53 AM 46.0 °F 43.1 °F 30.0 °F 54% 30.17 in 10.0 mi NNE 5.8 mph - N/A   Mostly Cloudy
1:53 AM 44.1 °F 40.8 °F 30.0 °F 58% 30.17 in 10.0 mi WNW 5.8 mph - N/A   Overcast
2:53 AM 45.0 °F 43.5 °F 30.0 °F 56% 30.18 in 10.0 mi West 3.5 mph - N/A   Partly Cloudy
3:53 AM 44.1 °F - 30.0 °F 58% 30.19 in 10.0 mi Calm Calm - N/A   Clear
4:53 AM 43.0 °F 41.3 °F 30.9 °F 62% 30.19 in 10.0 mi Variable 3.5 mph - N/A   Partly Cloudy
5:53 AM 42.1 °F - 30.0 °F 62% 30.22 in 10.0 mi Calm Calm - N/A   Mostly Cloudy
6:53 AM 39.2 °F 37.0 °F 30.2 °F 70% 30.29 in 10.0 mi NNE 3.5 mph - N/A   Clear
7:53 AM 39.9 °F - 30.0 °F 68% 30.26 in 10.0 mi Calm Calm - N/A   Clear
8:53 AM 43.0 °F 41.3 °F 32.0 °F 65% 30.28 in 10.0 mi South 3.5 mph - N/A   Clear
9:53 AM 48.2 °F - 32.0 °F 54% 30.35 in 10.0 mi SSE 4.6 mph - N/A   Partly Cloudy
10:53 AM 54.0 °F - 30.9 °F 41% 30.27 in 10.0 mi Variable 4.6 mph - N/A   Clear
11:53 AM 57.0 °F - 30.9 °F 37% 30.25 in 10.0 mi SSE 8.1 mph - N/A   Clear
12:53 PM 60.1 °F - 30.0 °F 32% 30.24 in 10.0 mi South 8.1 mph - N/A   Clear
1:53 PM 63.0 °F - 28.9 °F 28% 30.20 in 10.0 mi Variable 4.6 mph - N/A   Clear
2:53 PM 63.0 °F - 28.0 °F 27% 30.18 in 10.0 mi Variable 4.6 mph - N/A   Partly Cloudy
3:53 PM 64.9 °F - 28.0 °F 25% 30.15 in 10.0 mi Calm Calm - N/A   Clear
4:53 PM 64.9 °F - 27.0 °F 24% 30.15 in 10.0 mi Variable 4.6 mph - N/A   Overcast
5:53 PM 59.0 °F - 28.0 °F 31% 30.17 in 10.0 mi NW 4.6 mph - N/A   Clear
6:53 PM 60.1 °F - 30.0 °F 32% 30.19 in 10.0 mi NW 11.5 mph - N/A   Mostly Cloudy
7:53 PM 54.0 °F - 28.0 °F 37% 30.21 in 10.0 mi East 11.5 mph - N/A   Partly Cloudy
8:53 PM 51.8 °F - 28.4 °F 41% 30.28 in 10.0 mi Variable 3.5 mph - N/A   Clear
9:53 PM 44.1 °F 42.5 °F 28.0 °F 53% 30.25 in 10.0 mi East 3.5 mph - N/A   Clear
10:53 PM 46.9 °F - 28.9 °F 50% 30.24 in 10.0 mi SSE 8.1 mph - N/A   Clear
11:53 PM 42.1 °F 37.1 °F 28.0 °F 58% 30.24 in 10.0 mi ESE 8.1 mph - N/A   Clear